Location: Kergonan
(48.2337°N, 4.5518°W)
Time: 16:47:12
(UTC+00:00)

SKYMED 2 - Pass Details

Date: 18 January 2020
Orbit: 621 x 623 km, 97.9° (Epoch: 26 February)

Event Time Altitude Azimuth Distance (km) Brightness Sun altitude
Rises 05:24:12 0° 166° (SSE) 2,892 7.2 -25.8°
Reaches altitude 10° 05:26:23 10° 166° (SSE) 1,991 6.3 -25.4°
Enters shadow 05:30:00 62° 173° (S) 706 3.8 -24.8°
